CZ-6A DEB, 54511

Orbit data source: Space-Track

CZ-6A DEB, 54511 is space debris in SSO originally from a launch on Fri, 11 Nov 2022 UTC launched from the Taiyaun Space Center, China (TSC). Debris objects in space refer to the collection of defunct objects orbiting the Earth. Examples of debris include non-operational satellites, rocket bodies, and fragments generated from explosions, collisions, or faulty payload assembly.

Loading next visibility...
Identifier
54511, 2022-151JP
Orbit
SSO
Country
Flag of CNCN / PRC
Related business
Manufacturer
SAST
Mission
Spacecraft
Bus & Motor
Unknown
Mass
Unknown
Launch date (UTC)
2022-11-11 (4 years ago)
Launch vehicle
Unknown
Launch site
Taiyaun Space Center, China (TSC)
Object type
Payload
Rocket body
Debris
Shape & HBR
Unknown shape, 0.3 m
Radar Cross Section
Medium (>0.1 m² and <1 m²)

Expand to show TLE details & history
Last TLE update: 2 days ago

TLE from 2 days ago
0 CZ-6A DEB
1 54511U 22151JP  26171.44192337 -.00000075  00000-0 -23428-4 0  9994
2 54511  98.9076 141.0293 0131554  83.7972 277.8158 13.94903254183169
Epoch: 2026-06-20T10:36Z
TLE epoch observation values (Epoch: 2026-06-20T10:36:22.179Z)
Latitude
-0.00001°
Longitude
73.2804°
Altitude
902.57 km
Speed
7.407 km/s
True Right ascension
09h 24m 07s
True Declination
0° 00' 00"
Sunlit
Object was in daylight at epoch
Visualization orbit readout
Latitude
Unknown
Longitude
Unknown
Altitude
Unknown
Speed
Unknown
Apparent Right ascension
Unknown
Apparent Declination
Unknown
Sunlit
N/A
Visualization observer readout
Local Sidereal Time
21:36:43
Azimuth
Unknown
Elevation
Unknown
Doppler factor
Unknown
Orbital elements
Apogee altitude
1,004.56 km
Perigee altitude
812.838 km
Semi-major axis
7,286.836 km
Eccentricity
0.01316
Inclination
98.9076°
RAAN
141.0293°
Arg. of periapsis
83.7972°
True anomaly
276.31913°
Mean anomaly
277.8158°
Eccentric anomaly
277.06778°
Mean motion
3.48927 °/min
Orbital period
103.17 mins
BSTAR
-0.000023428
Loading maneuver chart data...
Computing Atmospheric mass density...
Loading historical data...
Loading historical data...
Loading historical data...
Loading historical data...
Loading historical data...
Loading historical data...
Loading historical data...

Documentation

Showing up to 5 results
|